Tracking 20942 objects as of 13-Jul-2020
HD Live streaming from Space Station
objects crossing your sky now

THORAD DELTA 1 DEB

Track THORAD DELTA 1 DEB now!
10-day predictions


NORAD ID: 8395
Int'l Code: 1974-089BX
Perigee: 1,353.7 km
Apogee: 1,455.0 km
Inclination: 100.7 °
Period: 113.7 minutes
Semi major axis: 7775 km
RCS: 0.0263 m2 (small)
Launch date: November 15, 1974
Source: United States (US)
Launch site: AIR FORCE WESTERN TEST RANGE (AFWTR)

Note: This is SATELLITE DEBRIS
aabbcc
Your satellite tracking list
Your tracking list is empty




NASA's NSSDC Master Catalog

Two Line Element Set (TLE):
1 08395U 74089BX  20194.98726138  .00000729  00000-0  40440-2 0  9995
2 08395 100.6800 263.2282 0065122 305.4413 231.6560 12.66265792 85386
Source of the keplerian elements: AFSPC